www.pogodaiklimat.ru

Погода и климат >> Архив погоды >> Иран >> Остров Сирри


ПОГОДА на Острове Сирри

  • Прогноз погоды на Острове Сирри
  • Монитор погоды на Острове Сирри

АРХИВ ПОГОДЫ на Острове Сирри

Время (UTC), дата Ветер
(напр.,м/с)
 
Видим.   Явления Облачность Т
(С)
Тd
(С)
f
(%)
Тe
(С)
Тes
(С)
Комфортность P
(гПа)
Po
(гПа)
Тmin
(С)
Tmax
(С)
R
(мм)
R24
(мм)
S
(см)
03 18.03 З 7 10 км ясно +20.6 +4.0 34 +21 +21 комфорт 1014.7 1014.2 +20.2
06 18.03 З 8 12 км ясно +22.8 +30.1 100 +31 +34 очень
душно
1017.6 1017.0 2
09 18.03 З 10 12 км ясно +23.0 +8.3 39 +24 +25 комфорт 1017.3 1016.7
12 18.03 З 6 15 км ясно +23.2 +30.1 100 +33 +35 очень
душно
1015.9 1015.4
15 18.03 ЮЗ 8 15 км ясно +21.4 +8.5 44 +23 +23 комфорт 1016.2 1015.7 +23.3
03 19.03 З 8 10 км мгла ясно +21.2 +10.6 51 +23 +23 комфорт 1015.4 1014.9 +20.8
06 19.03 З 10 10 км ясно +22.6 +30.1 100 +31 +31 очень
душно
1016.6 1016.1
09 19.03 З 15 10 км ясно +23.2 +7.0 35 +24 +24 комфорт 1015.5 1015.0
12 19.03 З 13 15 км ясно +22.8 +20.2 85 +29 +29 очень
душно
1013.1 1012.6
15 19.03 СЗ 12 15 км ясно +21.6 +11.2 52 +24 +24 комфорт 1013.1 1012.6 +23.6
03 20.03 З 5 10 км ясно +19.6 +13.3 67 +21 +21 комфорт 1013.3 1012.8 +19.2
06 20.03 СЗ 4 10 км ясно +21.8 +30.1 100 +28 +37 душно 1014.5 1014.0
09 20.03 ЮЗ 5 12 км ясно +23.0 +14.2 58 +27 +36 душно 1013.9 1013.4
12 20.03 ЮЗ 4 12 км ясно +23.8 +30.1 100 +32 +37 очень
душно
1011.7 1011.2
15 20.03 ЮЗ 3 12 км 3/0
[Ci fib]
+21.8 +14.7 64 +25 +25 комфорт 1011.5 1011.0 +24.0
03 21.03 штиль 0 7000 м дымка ясно +19.6 +17.0 85 +22 +22 комфорт 1013.3 1012.8 +19.4
06 21.03 Ю 2 5000 м мгла 5/0
[Ac trans]
+22.4 0.0 23 +22 +30 комфорт 1014.5 1014.0
09 21.03 ЮЗ 3 7000 м мгла 8/1 1050 м
[Cu hum Ac trans Cs]
+23.6 +17.9 70 +28 +36 душно 1014.9 1014.4
12 21.03 СЗ 3 10 км 6/1 1050 м
[Cu hum Cs]
+24.6 +30.1 100 +34 +39 очень
душно
1012.2 1011.7
15 21.03 С 2 10 км 5/1 1050 м
[Sc diur, vesp Cs]
+22.8 +17.3 71 +28 +28 душно 1012.9 1012.4 +24.4
03 22.03 З 2 7000 м в посл. час ливневой дождь 9/4 750 м
[Cb calv Ac As]
+22.6 +18.5 78 +28 +28 душно 1015.8 1015.3 +22.0
06 22.03 С 5 10 км {ливн. осадки} 6/4 750 м
[Cb calv Ac As]
+24.0 +3.0 25 +23 +26 комфорт 1015.6 1015.1 0.2
09 22.03 СВ 5 5000 м дымка 5/3 750 м
[Frnb Ac As]
+23.8 +20.8 83 +30 +35 очень
душно
1015.4 1014.9
12 22.03 В 4 5000 м мгла 4/0
[Ac As]
+24.0 +30.1 100 +33 +36 очень
душно
1013.3 1012.7
15 22.03 СВ 9 5000 м в посл. час гроза {дождь} 9/4 750 м
[Cb cap As op]
+23.2 +18.1 73 +29 +29 душно 1013.7 1013.1 +24.8
03 23.03 СВ 11 7000 м мгла {дождь} 8/3 750 м
[Frnb Ac As]
+22.8 +18.7 78 +29 +29 очень
душно
1013.8 1013.2 +22.4
06 23.03 СВ 10 4000 м гроза без осадков 10/4 750 м
[Cb cap As op]
+23.0 +19.6 81 +30 +30 очень
душно
1015.8 1015.3 1
09 23.03 СВ 18 4000 м пыльная буря на расстоянии {дождь} 5/3 1050 м
[Sc diur, vesp Ac As]
+23.0 +16.1 65 +27 +27 душно 1013.8 1013.3
12 23.03 СВ 17 5000 м пыльная буря на расстоянии 4/0
[Ci fib]
+22.2 +17.4 74 +27 +27 душно 1012.2 1011.7 0.1
15 23.03 СВ 19 5000 м пыльная буря на расстоянии 3/3 1050 м
[Sc diur, vesp]
+21.8 +17.6 77 +26 +26 душно 1012.0 1011.5 +23.6 666
03 24.03 В 10 4000 м дымка {гроза, дождь} 4/1 750 м
[Cb cap Ac As]
+22.2 +19.1 83 +28 +28 душно 1011.4 1010.9 +21.2
06 24.03 СВ 11 5000 м дымка 6/0
[Cs]
+22.6 +19.2 81 +29 +29 очень
душно
1012.3 1011.8 0.2
09 24.03 СВ 16 6000 м мгла ясно +22.8 +17.7 73 +28 +28 душно 1010.9 1010.3
12 24.03 СВ 13 6000 м мгла 6/3 1050 м
[Sc diur, vesp Cs]
+23.0 +18.2 74 +29 +29 очень
душно
1009.2 1008.7
15 24.03 СВ 16 6000 м мгла ясно +22.6 +18.2 76 +28 +28 душно 1009.2 1008.7 +23.2

 

Местоположение метеостанции Остров Сирри (Иран): широта 25.91 долгота 54.55 высота над уровнем моря 4 м.

В архиве по умолчанию представлена погода на Острове Сирри за последнюю неделю. Архивные данные за месяц целиком и за предыдущие месяцы, начиная с января 2011 года, Вы можете получить, выбрав интересующий диапазон дат из раскрывающегося списка и нажав кнопку "Ввод!".


*Определитесь, кто Вы:
робот инопланетянин человек

Внимание! Время в таблицах - всемирное. Для получения местного времени необходимо прибавить поправку, которая равна 3.5 ч.

Смотрите также архив погоды в соседних городах и на ближайших метеорологических станциях:

Погода на Острове Абу-Муса (Иран) (29 км)
Погода в Бендер-Ленге (Иран) (80 км)
Погода на Острове Киш (Иран) (87 км)
Погода в Дубае (ОАЭ) (107 км)
Погода в Шардже (ОАЭ) (117 км)
Погода в Аль-Мактум аэропорту (ОАЭ) (128 км)
Погода в Рай-эль-Хайма аэропорту (ОАЭ) (142 км)
Погода в Абу-Даби Батин аэропорту (ОАЭ) (165 км)
Погода в Абу-Даби (ОАЭ) (165 км)
Погода в Эль-Хасаб аэропорту (Оман) (170 км)

Пояснения к столбцам:

Ветер - указаны скорость ветра в м/с - средняя за 10 мин, порывы в срок и между сроками (в фигурных скобках) и направление, откуда дует ветер: С - северный, СВ - северо-восточный, В - восточный, ЮВ - юго-восточный, Ю - южный, ЮЗ - юго-западный, З - западный, СЗ - северо-западный.
Видимость - горизонтальная дальность видимости в метрах или километрах. При видимости от 1 до 10 км при отсутствии осадков обычно наблюдается дымка, при ухудшении видимости до 1 км и менее - туман. В сухую погоду видимость может ухудшаться дымом, пылью или мглою.
Явления - указаны атмосферные явления, наблюдавшиеся в срок или в последний час перед сроком; фигурными скобками обозначены явления, наблюдавшиеся между сроками (за 1-3 часа до срока); квадратными скобками обозначены град или гололедные отложения с указанием их диаметра в мм.
Облачность - указаны через наклонную черту общая и нижняя облачность в баллах и высота нижней границы облаков в метрах; квадратными скобками обозначены формы облаков: Ci - перистые, Cs - перисто-слоистые, Cc - перисто-кучевые, Ac - высококучевые, As - высокослоистые, Sc - слоисто-кучевые, Ns - слоисто-дождевые, Cu - кучевые, Cb - кучево-дождевые. Подробнее классификацию облаков см. в Атласе облаков (PDF).
T - Температура воздуха - температура, измеренная на высоте 2 м над землей.
Td - Температура точки росы - температура, при понижении до которой содержащийся в воздухе водяной пар достигнет насыщения.
f - Относительная влажность воздуха - влажноcть воздуха, измеренная на высоте 2 м над землей.
Te - Эффективная температура - температура, которую ощущает одетый по сезону человек в тени. Характеристика душности погоды. При расчете учитывается влияние влажности воздуха и скорости ветра на теплоощущения человека.
Tes - Эффективная температура на солнце - температура, которую ощущает человек, с поправкой на солнечный нагрев. Характеристика знойности погоды. Зависит от высоты солнца над горизонтом, облачности и скорости ветра. Ночью, в пасмурную погоду, а также при ветре 12 м/с и более поправка равна нулю.
P - Атмосферное давление - приведенное к уровню моря атмосферное давление.
Po - Атмосферное давление - измеренное на уровне метеостанции атмосферное давление.
Tmin - Минимальная температура - минимум температуры воздуха на высоте 2 м над землей.
Tmax - Максимальная температура - максимум температуры воздуха на высоте 2 м над землей.
R - Количество осадков - Количество выпавших осадков за период времени, мм. При наведении курсора мыши на число - период времени, за который выпало указанное количество осадков.
R24 - Количество осадков - Количество выпавших осадков за 24 часа, мм.
S - Снежный покров - Высота снежного покрова, см. При наведении курсора мыши на число - состояние снежного покрова и степень покрытия местности в баллах.